• En España
  • Lista de países
  • Para 7 días
  • Temperatura del agua
  • Mapa Satelital
  • El tiempo en el mapa
  • Informadores
  • user-avatar
    Iniciar sesión

    Tiempo cada hora Pinsk

    Hoy, 16 Octubre, Martes

    Tiempo Temperatura Precipitaciones Viento Presión Humedad
    00:00 +11°C° 0 mm 3 mps 757 mmHg 69%
    01:00 +10°C° 0 mm 3 mps 757 mmHg 69%
    02:00 +10°C° 0 mm 3 mps 757 mmHg 70%
    03:00 +9°C° 0 mm 3 mps 757 mmHg 71%
    04:00 +9°C° 0 mm 2 mps 756 mmHg 71%
    05:00 +9°C° 0 mm 2 mps 756 mmHg 72%
    06:00 +9°C° 0 mm 2 mps 756 mmHg 72%
    07:00 +10°C° 0 mm 3 mps 756 mmHg 71%
    08:00 +10°C° 0 mm 3 mps 756 mmHg 71%
    09:00 +12°C° 0 mm 3 mps 756 mmHg 65%
    10:00 +16°C° 0 mm 3 mps 756 mmHg 58%
    11:00 +18°C° 0 mm 3 mps 756 mmHg 52%
    12:00 +19°C° 0 mm 3 mps 756 mmHg 49%
    13:00 +20°C° 0 mm 3 mps 756 mmHg 46%
    14:00 +21°C° 0 mm 3 mps 756 mmHg 43%
    15:00 +20°C° 0 mm 3 mps 756 mmHg 48%
    16:00 +18°C° 0 mm 3 mps 756 mmHg 53%
    17:00 +17°C° 0 mm 2 mps 755 mmHg 58%
    18:00 +16°C° 0 mm 2 mps 756 mmHg 62%
    19:00 +15°C° 0 mm 2 mps 756 mmHg 66%
    20:00 +14°C° 0 mm 2 mps 756 mmHg 70%
    21:00 +13°C° 0 mm 2 mps 756 mmHg 73%
    22:00 +13°C° 0 mm 2 mps 756 mmHg 75%
    23:00 +12°C° 0 mm 2 mps 756 mmHg 78%

    Mañana, 17 Octubre, Miércoles

    Tiempo Temperatura Precipitaciones Viento Presión Humedad
    00:00 +12°C° 0 mm 2 mps 756 mmHg 79%
    01:00 +12°C° 0 mm 2 mps 756 mmHg 80%
    02:00 +10°C° 0 mm 2 mps 756 mmHg 81%
    03:00 +10°C° 0 mm 2 mps 756 mmHg 82%
    04:00 +10°C° 0 mm 2 mps 756 mmHg 82%
    05:00 +9°C° 0 mm 2 mps 756 mmHg 83%
    06:00 +10°C° 0 mm 2 mps 756 mmHg 82%
    07:00 +10°C° 0 mm 2 mps 756 mmHg 80%
    08:00 +10°C° 0 mm 2 mps 756 mmHg 79%
    09:00 +14°C° 0 mm 2 mps 756 mmHg 70%
    10:00 +16°C° 0 mm 2 mps 756 mmHg 62%
    11:00 +18°C° 0 mm 2 mps 756 mmHg 53%
    12:00 +20°C° 0 mm 2 mps 756 mmHg 50%
    13:00 +21°C° 0 mm 2 mps 756 mmHg 47%
    14:00 +23°C° 0 mm 2 mps 755 mmHg 44%
    15:00 +20°C° 0 mm 2 mps 755 mmHg 49%
    16:00 +19°C° 0 mm 2 mps 755 mmHg 54%
    17:00 +19°C° 0 mm 1 mps 755 mmHg 59%
    18:00 +17°C° 0 mm 2 mps 755 mmHg 63%
    19:00 +16°C° 0 mm 2 mps 755 mmHg 67%
    20:00 +15°C° 0 mm 2 mps 755 mmHg 70%
    21:00 +15°C° 0 mm 2 mps 755 mmHg 74%
    22:00 +14°C° 0 mm 2 mps 755 mmHg 77%
    23:00 +14°C° 0 mm 2 mps 755 mmHg 81%

    Pasado mañana, 18 Octubre, Jueves

    Tiempo Temperatura Precipitaciones Viento Presión Humedad
    00:00 +13°C° 0 mm 2 mps 755 mmHg 83%
    01:00 +13°C° 0 mm 2 mps 755 mmHg 85%
    02:00 +13°C° 0 mm 2 mps 755 mmHg 87%
    03:00 +12°C° 0 mm 2 mps 755 mmHg 88%
    04:00 +12°C° 0 mm 2 mps 755 mmHg 88%
    05:00 +12°C° 0 mm 2 mps 754 mmHg 88%
    06:00 +12°C° 0 mm 2 mps 754 mmHg 87%
    07:00 +12°C° 0 mm 2 mps 754 mmHg 85%
    08:00 +12°C° 0 mm 2 mps 754 mmHg 83%
    09:00 +14°C° 0 mm 2 mps 754 mmHg 74%
    10:00 +16°C° 0 mm 2 mps 754 mmHg 64%
    11:00 +19°C° 0 mm 2 mps 754 mmHg 55%
    12:00 +19°C° 0 mm 2 mps 754 mmHg 51%
    13:00 +20°C° 0 mm 2 mps 753 mmHg 47%
    14:00 +21°C° 0 mm 3 mps 753 mmHg 43%
    15:00 +20°C° 0 mm 2 mps 753 mmHg 47%
    16:00 +18°C° 0 mm 2 mps 753 mmHg 52%
    17:00 +17°C° 0 mm 2 mps 752 mmHg 56%
    18:00 +16°C° 0 mm 2 mps 752 mmHg 59%
    19:00 +15°C° 0 mm 2 mps 752 mmHg 62%
    20:00 +14°C° 0 mm 2 mps 752 mmHg 65%
    21:00 +13°C° 0 mm 2 mps 752 mmHg 68%
    22:00 +13°C° 0 mm 1 mps 752 mmHg 70%
    23:00 +12°C° 0 mm 1 mps 752 mmHg 73%

    19 Octubre, Viernes

    Tiempo Temperatura Precipitaciones Viento Presión Humedad
    00:00 +12°C° 0 mm 1 mps 752 mmHg 75%
    01:00 +12°C° 0 mm 1 mps 752 mmHg 77%
    02:00 +11°C° 0 mm 1 mps 752 mmHg 80%
    03:00 +11°C° 0 mm 1 mps 752 mmHg 81%
    04:00 +11°C° 0 mm 1 mps 752 mmHg 83%
    05:00 +10°C° 0 mm 1 mps 751 mmHg 84%
    06:00 +9°C° 0 mm 0 mps 752 mmHg 83%
    07:00 +10°C° 0 mm 0 mps 752 mmHg 81%
    08:00 +10°C° 0 mm 0 mps 752 mmHg 80%
    09:00 +12°C° 0 mm 0 mps 752 mmHg 72%
    10:00 +14°C° 0 mm 0 mps 752 mmHg 64%
    11:00 +16°C° 0 mm 0 mps 752 mmHg 56%
    12:00 +17°C° 0 mm 0 mps 752 mmHg 54%
    13:00 +18°C° 0 mm 0 mps 751 mmHg 52%
    14:00 +20°C° 0 mm 1 mps 751 mmHg 50%
    15:00 +19°C° 0 mm 1 mps 751 mmHg 54%
    16:00 +18°C° 0 mm 1 mps 751 mmHg 59%
    17:00 +16°C° 0 mm 1 mps 751 mmHg 64%
    18:00 +15°C° 0 mm 1 mps 751 mmHg 67%
    19:00 +14°C° 0 mm 1 mps 751 mmHg 71%
    20:00 +13°C° 0 mm 1 mps 752 mmHg 74%
    21:00 +13°C° 0 mm 1 mps 752 mmHg 76%
    22:00 +12°C° 0 mm 1 mps 752 mmHg 79%
    23:00 +12°C° 0 mm 1 mps 752 mmHg 81%

    20 Octubre, Sábado

    Tiempo Temperatura Precipitaciones Viento Presión Humedad
    00:00 +11°C° 0 mm 1 mps 752 mmHg 83%
    01:00 +11°C° 0 mm 1 mps 752 mmHg 86%
    02:00 +10°C° 0 mm 2 mps 752 mmHg 88%
    03:00 +9°C° 0 mm 2 mps 752 mmHg 90%
    04:00 +9°C° 0 mm 2 mps 752 mmHg 91%
    05:00 +9°C° 0 mm 2 mps 752 mmHg 93%
    06:00 +9°C° 0 mm 2 mps 752 mmHg 93%
    07:00 +9°C° 0 mm 2 mps 753 mmHg 93%
    08:00 +9°C° 0 mm 2 mps 753 mmHg 93%
    09:00 +12°C° 0 mm 2 mps 753 mmHg 86%
    10:00 +12°C° 0 mm 3 mps 753 mmHg 79%
    11:00 +14°C° 0 mm 3 mps 754 mmHg 72%
    12:00 +14°C° 0 mm 3 mps 753 mmHg 70%
    13:00 +16°C° 0 mm 3 mps 753 mmHg 67%
    14:00 +15°C° 0 mm 4 mps 753 mmHg 64%
    15:00 +14°C° 0 mm 4 mps 753 mmHg 66%
    16:00 +14°C° 0 mm 4 mps 754 mmHg 68%
    17:00 +13°C° 0 mm 4 mps 754 mmHg 69%
    18:00 +12°C° 0 mm 4 mps 754 mmHg 70%
    19:00 +11°C° 0 mm 3 mps 754 mmHg 70%
    20:00 +10°C° 0 mm 3 mps 754 mmHg 70%
    21:00 +10°C° 0 mm 3 mps 754 mmHg 70%
    22:00 +9°C° 0 mm 3 mps 755 mmHg 69%
    23:00 +9°C° 0 mm 3 mps 755 mmHg 69%

    21 Octubre, Domingo

    Tiempo Temperatura Precipitaciones Viento Presión Humedad
    00:00 +8°C° 0 mm 3 mps 755 mmHg 71%
    01:00 +8°C° 0 mm 3 mps 755 mmHg 73%
    02:00 +7°C° 0 mm 3 mps 755 mmHg 75%
    03:00 +7°C° 0 mm 3 mps 755 mmHg 76%
    04:00 +7°C° 0 mm 3 mps 755 mmHg 77%
    05:00 +7°C° 0 mm 3 mps 755 mmHg 78%
    06:00 +7°C° 0 mm 3 mps 755 mmHg 78%
    07:00 +8°C° 0 mm 3 mps 755 mmHg 79%
    08:00 +8°C° 0 mm 3 mps 755 mmHg 79%
    09:00 +9°C° 0 mm 3 mps 755 mmHg 77%
    10:00 +10°C° 0 mm 3 mps 755 mmHg 75%
    11:00 +11°C° 0 mm 3 mps 755 mmHg 72%
    12:00 +11°C° 0 mm 3 mps 755 mmHg 68%
    13:00 +12°C° 0 mm 4 mps 755 mmHg 64%
    14:00 +13°C° 0 mm 4 mps 755 mmHg 60%
    15:00 +12°C° 0 mm 3 mps 755 mmHg 63%
    16:00 +12°C° 0 mm 3 mps 755 mmHg 66%
    17:00 +11°C° 0 mm 3 mps 755 mmHg 69%
    18:00 +10°C° 0 mm 3 mps 755 mmHg 75%
    19:00 +9°C° 0 mm 3 mps 755 mmHg 81%
    20:00 +8°C° 0 mm 3 mps 755 mmHg 87%
    21:00 +8°C° 0 mm 3 mps 755 mmHg 89%
    22:00 +8°C° 0 mm 3 mps 755 mmHg 92%
    23:00 +8°C° 0 mm 3 mps 755 mmHg 94%
    Mostrar más